Weather History for KSGF - September, 2013

Change the Weather History Date:

Tuesday, September 24, 2013

  Actual Average Record
Temperature  
Mean Temperature 68 °F 65 °F  
Max Temperature 77 °F 77 °F 92 °F (1939)
Min Temperature 59 °F 54 °F 32 °F (1989)
Degree Days  
Heating Degree Days 0 3  
Month to date heating degree days 13 29  
Since 1 July heating degree days 13 31  
Cooling Degree Days 3 3  
Month to date cooling degree days 209 155  
Year to date cooling degree days 1352 1341  
Growing Degree Days 18 (Base 50)    
Moisture  
Dew Point 56 °F    
Average Humidity 67    
Maximum Humidity 84    
Minimum Humidity 50    
Precipitation  
Precipitation 0.03 in 0.15 in 5.03 in (1993)
Month to date precipitation 1.85 3.71  
Year to date precipitation 40.00 33.82  
Snow  
Snow 0.00 in - - ()
Month to date snowfall 0.0  
Since 1 July snowfall 0.0  
Since 1 September snowfall 0.0  
Snow Depth 0.00 in    
Sea Level Pressure  
Sea Level Pressure 29.84 in    
Wind  
Wind Speed 9 mph (SW)    
Max Wind Speed 18 mph    
Max Gust Speed 22 mph    
Visibility 10 miles    
Events      
T = Trace of Precipitation, MM = Missing Value Source: NWS Daily Summary

Daily Weather History Graph

Daily Weather History Graph

Search for Another Location

Airport or City:

Trip Planner

Search our weather history database for the weather conditions in past years. The results will help you decide how hot, cold, wet, or windy it might be!

Date:

Astronomy

Sep. 24, 2013 Rise Set
Actual Time 7:03 AM CDT 7:07 PM CDT
Civil Twilight 6:37 AM CDT 7:32 PM CDT
Nautical Twilight 6:06 AM CDT 8:03 PM CDT
Astronomical Twilight 5:36 AM CDT 8:33 PM CDT
Moon 10:31 PM CDT (9/24) 12:11 PM CDT (9/24)
Length of Visible Light 12h 55m
Length of Day
12h 03m
Waning Gibbous, 73% of the Moon is Illuminated
Sep 24
Waning Gibbous
Sep 26
Last Quarter
Oct 4
New
Oct 11
First Quarter
Oct 18
Full

Hourly Weather History & Observations

Time (CDT) Temp. Dew Point Humidity Pressure Visibility Wind Dir Wind Speed Gust Speed Precip Events Conditions
12:52 AM 62.1 °F 55.0 °F 78% 29.88 in 10.0 mi SSE 10.4 mph - N/A   Clear
1:52 AM 62.1 °F 55.0 °F 78% 29.87 in 10.0 mi SSE 11.5 mph - N/A   Clear
2:52 AM 62.1 °F 55.0 °F 78% 29.86 in 10.0 mi SSE 11.5 mph - N/A   Clear
3:52 AM 62.1 °F 55.0 °F 78% 29.85 in 10.0 mi SSE 11.5 mph - N/A   Clear
4:52 AM 61.0 °F 55.9 °F 83% 29.85 in 10.0 mi SSE 11.5 mph - 0.03 in   Scattered Clouds
5:52 AM 61.0 °F 55.9 °F 83% 29.85 in 10.0 mi South 10.4 mph - N/A   Clear
6:52 AM 60.1 °F 55.0 °F 83% 29.85 in 10.0 mi South 11.5 mph - N/A   Clear
7:52 AM 61.0 °F 55.9 °F 83% 29.85 in 10.0 mi South 8.1 mph - N/A   Clear
8:52 AM 64.9 °F 57.9 °F 78% 29.84 in 10.0 mi SSW 10.4 mph - N/A   Clear
9:52 AM 70.0 °F 55.9 °F 61% 29.83 in 10.0 mi SW 15.0 mph - N/A   Clear
10:52 AM 72.0 °F 55.9 °F 57% 29.83 in 10.0 mi SW 13.8 mph - N/A   Clear
11:52 AM 73.0 °F 55.0 °F 53% 29.84 in 10.0 mi West 11.5 mph - N/A   Clear
12:52 PM 73.9 °F 55.0 °F 52% 29.83 in 10.0 mi WSW 11.5 mph - N/A   Clear
1:52 PM 75.9 °F 55.9 °F 50% 29.82 in 10.0 mi West 8.1 mph - N/A   Partly Cloudy
2:52 PM 75.9 °F 55.0 °F 48% 29.81 in 10.0 mi West 10.4 mph - N/A   Scattered Clouds
3:52 PM 75.0 °F 55.9 °F 51% 29.82 in 10.0 mi West 10.4 mph - N/A   Overcast
4:52 PM 73.0 °F 57.0 °F 57% 29.83 in 10.0 mi WNW 9.2 mph - N/A   Overcast
5:52 PM 72.0 °F 57.0 °F 59% 29.83 in 10.0 mi WNW 6.9 mph - N/A   Overcast
6:52 PM 71.1 °F 57.9 °F 63% 29.83 in 10.0 mi Calm Calm - N/A   Overcast
7:52 PM 69.1 °F 59.0 °F 70% 29.82 in 10.0 mi West 3.5 mph - N/A   Overcast
8:52 PM 66.0 °F 60.1 °F 81% 29.82 in 10.0 mi SW 3.5 mph - N/A   Mostly Cloudy
9:52 PM 66.0 °F 57.0 °F 73% 29.83 in 10.0 mi WNW 5.8 mph - N/A   Overcast
10:52 PM 64.0 °F 55.0 °F 73% 29.83 in 10.0 mi West 5.8 mph - N/A   Clear
11:52 PM 63.0 °F 55.0 °F 75% 29.83 in 10.0 mi WNW 4.6 mph - N/A   Partly Cloudy